EW7099 Weather Reports


time (UTC)temp
C
wind
direction
speed
KPH
gust
KPH
rain 1hr
cm
rain 24hr
cm
rain mn
cm
humidity
%
barometer
mb
20260506073046 27 173 0.0 3.2 0.00 0.00 0.00 83 1008.7
20260506071557 27 230 0.0 3.2 0.00 0.00 0.00 82 1008.9
20260506061537 27 292 3.2 9.7 0.00 0.00 0.00 81 1009.4
20260506044525 28 254 3.2 9.7 0.00 0.00 0.00 80 1009.6
20260506043021 28 257 3.2 9.7 0.00 0.00 0.00 80 1009.4
20260506041527 28 286 1.6 11.3 0.00 0.00 0.00 80 1009.3
20260506040046 28 265 0.0 11.3 0.00 0.00 0.00 79 1009.3
20260506034546 28 250 4.8 11.3 0.00 0.00 0.00 79 1009.2
20260506033039 28 234 1.6 8.0 0.00 0.00 0.00 79 1008.9
20260506031539 28 265 1.6 8.0 0.00 0.00 0.00 78 1008.8
20260506030036 28 230 3.2 9.7 0.00 0.00 0.00 78 1008.6
20260506024539 28 234 3.2 9.7 0.00 0.00 0.00 79 1008.3
20260506023002 28 225 1.6 9.7 0.00 0.00 0.00 79 1008.3
20260506021559 28 225 1.6 9.7 0.00 0.00 0.00 80 1008.2
20260506020053 28 235 1.6 9.7 0.00 0.00 0.00 80 1007.8
20260506014554 29 281 6.4 14.5 0.00 0.00 0.00 80 1007.6
20260506013044 29 246 8.0 19.3 0.00 0.00 0.00 80 1007.4
20260506011542 29 184 6.4 17.7 0.00 0.00 0.00 79 1007.2
20260506010034 30 161 9.7 17.7 0.00 0.00 0.00 77 1007.1
20260506004538 30 360 9.7 16.1 0.00 0.00 0.00 76 1006.9
20260506003030 30 210 9.7 17.7 0.00 0.00 0.00 75 1006.9
20260506001529 30 207 6.4 14.5 0.00 0.00 0.00 74 1006.8
20260506000035 31 161 12.9 20.9 0.00 0.00 0.00 72 1006.6
20260505234525 31 213 8.0 17.7 0.00 0.00 0.00 71 1006.6
20260505233024 31 176 9.7 22.5 0.00 0.00 0.00 70 1006.5
20260505231524 31 184 14.5 24.1 0.00 0.00 0.00 69 1006.4
20260505230021 32 221 12.9 24.1 0.00 0.00 0.00 67 1006.4
20260505224533 32 209 12.9 24.1 0.00 0.00 0.00 66 1006.3
20260505223028 32 208 12.9 22.5 0.00 0.00 0.00 66 1006.3
20260505221520 33 210 9.7 22.5 0.00 0.00 0.00 65 1006.3
20260505220027 33 194 9.7 22.5 0.00 0.00 0.00 66 1006.3
20260505214527 33 145 14.5 29.0 0.00 0.00 0.00 66 1006.3
20260505213021 33 160 11.3 25.7 0.00 0.00 0.00 65 1006.4
20260505211513 33 167 14.5 29.0 0.00 0.00 0.00 64 1006.5
20260505210011 34 136 16.1 29.0 0.00 0.00 0.00 60 1006.4
20260505204515 35 169 14.5 22.5 0.00 0.00 0.00 52 1006.5
20260505203008 35 200 16.1 22.5 0.00 0.00 0.00 50 1006.5
20260505201505 35 178 12.9 17.7 0.00 0.00 0.00 51 1006.8
20260505194603 35 172 16.1 24.1 0.00 0.00 0.00 55 1007.2
20260505193056 35 154 12.9 20.9 0.00 0.00 0.00 55 1007.4
20260505191600 35 130 16.1 22.5 0.00 0.00 0.00 55 1007.5
20260505190103 35 171 14.5 24.1 0.00 0.00 0.00 56 1007.7
20260505184600 34 161 14.5 25.7 0.00 0.00 0.00 57 1008.0
20260505183051 34 178 16.1 29.0 0.00 0.00 0.00 58 1008.1
20260505181545 35 165 16.1 25.7 0.00 0.00 0.00 58 1008.3
20260505180050 34 153 14.5 22.5 0.00 0.00 0.00 58 1008.3
20260505174543 35 117 11.3 29.0 0.00 0.00 0.00 59 1008.5
20260505173042 35 128 9.7 22.5 0.00 0.00 0.00 59 1008.8
20260505171542 35 119 14.5 22.5 0.00 0.00 0.00 58 1008.9
20260505170036 34 168 11.3 22.5 0.00 0.00 0.00 57 1009.1
20260505164537 34 182 9.7 19.3 0.00 0.00 0.00 57 1009.3
20260505163033 34 125 11.3 19.3 0.00 0.00 0.00 59 1009.3
20260505161531 34 141 9.7 12.9 0.00 0.00 0.00 60 1009.5
20260505153107 33 163 8.0 12.9 0.00 0.00 0.00 60 1009.7
20260505151548 32 101 8.0 14.5 0.00 0.00 0.00 58 1009.8
20260505150106 32 61 8.0 12.9 0.00 0.00 0.00 57 1009.9
20260505124604 24 292 0.0 0.0 0.00 0.00 0.00 79 1008.9
20260505123110 24 292 0.0 0.0 0.00 0.00 0.00 79 1008.8
20260505121552 24 292 0.0 0.0 0.00 0.00 0.00 80 1008.7
20260505120054 24 288 3.2 8.0 0.00 0.00 0.00 79 1008.6
20260505114554 25 296 0.0 3.2 0.00 0.00 0.00 78 1008.6
20260505113051 25 298 3.2 6.4 0.00 0.00 0.00 79 1008.4
20260505111545 25 292 0.0 0.0 0.00 0.00 0.00 78 1008.3
20260505101546 25 294 0.0 0.0 0.00 0.00 0.00 79 1007.9
20260505100043 25 296 0.0 0.0 0.00 0.00 0.00 79 1007.9
20260505094537 25 296 0.0 0.0 0.00 0.00 0.00 78 1007.9
20260505093043 25 296 0.0 0.0 0.00 0.00 0.00 78 1008.0
20260505091542 25 302 0.0 0.0 0.00 0.00 0.00 79 1007.9
20260505090047 25 302 0.0 3.2 0.00 0.00 0.00 80 1007.9
20260505084503 25 307 1.6 4.8 0.00 0.00 0.00 81 1008.1
20260505083004 25 304 0.0 0.0 0.00 0.00 0.00 79 1008.2
20260505081601 25 304 0.0 0.0 0.00 0.00 0.00 79 1008.4
20260505080058 26 304 0.0 0.0 0.00 0.00 0.00 80 1008.5
20260505074556 26 304 0.0 0.0 0.00 0.00 0.00 82 1008.6